EJA157 KUCY-KMEM

Flight info

Callsign EJA157
Flight time N/A
Altitude 14000
Route SPKER BLUZZ5
Aircraft C25C/M-G/C

Departure

Time 2026-04-17 01:26
Airport Everett-Stewart Regional Airport (KUCY)

Arrival

Time N/A
Airport Memphis International Airport (KMEM)
Time Latitude Longitude Altitude Speed Heading
2026-04-17 01:07 36.38335 -88.98287 304 ft 0 kts 147°
2026-04-17 01:17 36.38346 -88.98296 321 ft 3 kts 147°
2026-04-17 01:17 36.38347 -88.98297 321 ft 0 kts 147°
2026-04-17 01:23 36.38350 -88.98284 322 ft 5 kts 22°
2026-04-17 01:23 36.38379 -88.98317 321 ft 8 kts 254°
2026-04-17 01:23 36.38454 -88.98370 320 ft 26 kts
2026-04-17 01:23 36.38692 -88.98332 315 ft 39 kts
2026-04-17 01:24 36.38846 -88.98358 312 ft 17 kts 284°
2026-04-17 01:24 36.38821 -88.98453 311 ft 5 kts 185°
2026-04-17 01:24 36.38820 -88.98453 311 ft 0 kts 185°
2026-04-17 01:25 36.38768 -88.98460 312 ft 42 kts 186°
2026-04-17 01:26 36.38109 -88.98551 442 ft 134 kts 186°
2026-04-17 01:26 36.37037 -88.98742 1258 ft 174 kts 192°
2026-04-17 01:26 36.35722 -88.98946 2154 ft 212 kts 187°
2026-04-17 01:26 36.34165 -88.99081 3085 ft 233 kts 187°
2026-04-17 01:27 36.32495 -88.99272 4015 ft 249 kts 188°
2026-04-17 01:27 36.30773 -88.99508 4940 ft 250 kts 189°
2026-04-17 01:27 36.29038 -88.99734 5859 ft 250 kts 189°
2026-04-17 01:27 36.27300 -88.99969 6768 ft 252 kts 190°
2026-04-17 01:28 36.25560 -89.00192 7617 ft 257 kts 190°
2026-04-17 01:28 36.23740 -89.00434 8407 ft 266 kts 189°
2026-04-17 01:28 36.21888 -89.00676 9210 ft 273 kts 190°
2026-04-17 01:28 36.19974 -89.00923 10029 ft 278 kts 189°
2026-04-17 01:29 36.18039 -89.01180 10785 ft 283 kts 190°
2026-04-17 01:29 36.14060 -89.01700 12357 ft 294 kts 190°
2026-04-17 01:29 36.11994 -89.01967 13173 ft 303 kts 190°
2026-04-17 01:30 36.09869 -89.02249 13910 ft 315 kts 190°
2026-04-17 01:30 36.07570 -89.02554 13961 ft 344 kts 190°
2026-04-17 01:30 36.05137 -89.02868 13978 ft 361 kts 189°
2026-04-17 01:30 36.02629 -89.03189 13976 ft 365 kts 189°
2026-04-17 01:31 36.00066 -89.03517 13980 ft 368 kts 189°
2026-04-17 01:31 35.97528 -89.03853 13979 ft 370 kts 190°
2026-04-17 01:31 35.94945 -89.04187 13980 ft 372 kts 190°
2026-04-17 01:31 35.92392 -89.04521 13980 ft 373 kts 189°
2026-04-17 01:32 35.89798 -89.04853 13976 ft 372 kts 190°
2026-04-17 01:32 35.87250 -89.05186 13974 ft 370 kts 190°
2026-04-17 01:32 35.84678 -89.05519 13973 ft 369 kts 190°
2026-04-17 01:32 35.82147 -89.05847 13977 ft 368 kts 190°
2026-04-17 01:33 35.79589 -89.06179 13977 ft 367 kts 190°
2026-04-17 01:33 35.77032 -89.06508 13979 ft 366 kts 190°
2026-04-17 01:33 35.74527 -89.06834 13978 ft 365 kts 190°
2026-04-17 01:33 35.71994 -89.07159 13977 ft 364 kts 190°
2026-04-17 01:34 35.69459 -89.07489 13977 ft 364 kts 190°
2026-04-17 01:34 35.66973 -89.07814 13975 ft 362 kts 192°
2026-04-17 01:34 35.64705 -89.08854 13964 ft 335 kts 219°
2026-04-17 01:34 35.63138 -89.10818 13962 ft 310 kts 236°
2026-04-17 01:35 35.62162 -89.13051 13988 ft 290 kts 252°
2026-04-17 01:35 35.61648 -89.15470 14024 ft 301 kts 260°
2026-04-17 01:35 35.61222 -89.17950 13617 ft 288 kts 259°
2026-04-17 01:35 35.60810 -89.20305 13040 ft 274 kts 259°
2026-04-17 01:36 35.60403 -89.22518 12434 ft 264 kts 258°
2026-04-17 01:36 35.59598 -89.24535 11815 ft 262 kts 236°
2026-04-17 01:36 35.58461 -89.26279 11148 ft 261 kts 234°
2026-04-17 01:36 35.57318 -89.27979 10485 ft 261 kts 233°
2026-04-17 01:37 35.56157 -89.29694 10057 ft 259 kts 233°
2026-04-17 01:37 35.55007 -89.31404 10033 ft 257 kts 233°
2026-04-17 01:37 35.53874 -89.33106 10025 ft 255 kts 233°
2026-04-17 01:37 35.52748 -89.34782 10023 ft 258 kts 233°
2026-04-17 01:38 35.51599 -89.36498 10020 ft 261 kts 233°
2026-04-17 01:38 35.50442 -89.38222 10022 ft 260 kts 233°
2026-04-17 01:38 35.49258 -89.39880 9881 ft 265 kts 230°
2026-04-17 01:38 35.47997 -89.41563 9513 ft 264 kts 230°
2026-04-17 01:39 35.46759 -89.43195 9102 ft 257 kts 230°
2026-04-17 01:39 35.45570 -89.44774 8702 ft 251 kts 230°
2026-04-17 01:39 35.44395 -89.46338 8295 ft 246 kts 230°
2026-04-17 01:39 35.43251 -89.47876 7890 ft 244 kts 229°
2026-04-17 01:40 35.42101 -89.49435 7466 ft 245 kts 229°
2026-04-17 01:40 35.40978 -89.50965 7107 ft 242 kts 230°
2026-04-17 01:40 35.39862 -89.52497 6747 ft 240 kts 230°
2026-04-17 01:40 35.38759 -89.54025 6392 ft 238 kts 230°
2026-04-17 01:41 35.37671 -89.55543 6017 ft 236 kts 230°
2026-04-17 01:41 35.36591 -89.57065 5644 ft 235 kts 229°
2026-04-17 01:41 35.35731 -89.58715 5271 ft 235 kts 254°
2026-04-17 01:41 35.35580 -89.60700 5065 ft 229 kts 266°
2026-04-17 01:42 35.35548 -89.62663 5012 ft 232 kts 268°
2026-04-17 01:42 35.35544 -89.64632 5012 ft 235 kts 268°
2026-04-17 01:42 35.35545 -89.66646 5008 ft 236 kts 268°
2026-04-17 01:42 35.35545 -89.68672 5005 ft 237 kts 268°
2026-04-17 01:43 35.35553 -89.70700 5004 ft 238 kts 268°
2026-04-17 01:43 35.35558 -89.72733 5002 ft 239 kts 268°
2026-04-17 01:43 35.35565 -89.74754 5003 ft 240 kts 268°
2026-04-17 01:43 35.35354 -89.76769 4981 ft 237 kts 252°
2026-04-17 01:44 35.34829 -89.78646 4722 ft 231 kts 249°
2026-04-17 01:44 35.34271 -89.80490 4395 ft 234 kts 248°
2026-04-17 01:44 35.33702 -89.82361 4076 ft 229 kts 248°
2026-04-17 01:44 35.33154 -89.84138 3814 ft 215 kts 248°
2026-04-17 01:45 35.32664 -89.85789 3690 ft 198 kts 248°
2026-04-17 01:45 35.32210 -89.87325 3475 ft 190 kts 248°
2026-04-17 01:45 35.31770 -89.88839 3264 ft 187 kts 248°
2026-04-17 01:45 35.31338 -89.90338 3084 ft 183 kts 248°
2026-04-17 01:46 35.30924 -89.91756 3022 ft 174 kts 248°
2026-04-17 01:46 35.30537 -89.93124 2989 ft 165 kts 248°
2026-04-17 01:46 35.29971 -89.94257 2978 ft 154 kts 223°
2026-04-17 01:46 35.29192 -89.95120 2983 ft 149 kts 222°
2026-04-17 01:47 35.28424 -89.95955 2982 ft 150 kts 220°
2026-04-17 01:47 35.27563 -89.96700 2979 ft 153 kts 210°
2026-04-17 01:47 35.26584 -89.97190 2984 ft 154 kts 199°
2026-04-17 01:47 35.25554 -89.97603 2981 ft 157 kts 193°
2026-04-17 01:48 35.24473 -89.97663 2987 ft 156 kts 184°
2026-04-17 01:48 35.23358 -89.97692 2990 ft 165 kts 181°
2026-04-17 01:48 35.22178 -89.97669 3002 ft 172 kts 181°
2026-04-17 01:48 35.20974 -89.97643 3009 ft 176 kts 181°
2026-04-17 01:49 35.19739 -89.97618 3008 ft 179 kts 181°
2026-04-17 01:49 35.18457 -89.97593 2837 ft 189 kts 181°
2026-04-17 01:49 35.17162 -89.97564 2617 ft 180 kts 181°
2026-04-17 01:49 35.15946 -89.97536 2376 ft 172 kts 181°
2026-04-17 01:50 35.14786 -89.97511 2145 ft 158 kts 180°
2026-04-17 01:50 35.13735 -89.97487 1941 ft 144 kts 181°
2026-04-17 01:50 35.12764 -89.97463 1753 ft 135 kts 181°
2026-04-17 01:50 35.11853 -89.97445 1587 ft 126 kts 181°
2026-04-17 01:51 35.11016 -89.97426 1414 ft 119 kts 181°
2026-04-17 01:51 35.10180 -89.97408 1260 ft 121 kts 181°
2026-04-17 01:51 35.09288 -89.97388 1120 ft 134 kts 180°
2026-04-17 01:51 35.08346 -89.97370 965 ft 139 kts 180°
2026-04-17 01:52 35.07702 -89.97355 851 ft 140 kts 179°